Location: Unspecified
(0.0000°N, 0.0000°E)
Time: 14:58:37
(UTC+00:00)

X-37B - Visible Passes

Search period start: 18 May 2021 00:00
Search period end: 28 May 2021 00:00
Orbit: 386 x 389 km, 45.0° (Epoch: 08 May)

Date Brightness Start Highest point End Pass type
(mag) Time Alt. Az. Time Alt. Az. Time Alt. Az.
22 May 2.7 19:04:21 10° N 19:06:10 15° NE 19:06:10 15° NE visible
23 May 2.5 19:41:22 10° NW 19:43:12 30° WNW 19:43:12 30° WNW visible
24 May 1.1 18:43:06 10° NNW 18:46:08 43° NE 18:47:58 20° ESE visible
25 May 2.8 19:21:58 10° W 19:24:17 18° SW 19:25:04 17° SSW visible
26 May 1.2 18:22:50 10° NW 18:25:56 53° SW 18:29:03 10° SSE visible
